Regional Weather Roundup
Issued by NWS Upton, NY

Current Version | Previous Version | Graphics & Text | Print | Product List | Glossary Off
Versions: 1 2 3 4 5 6 7 8 9 10 11 12 13 14 15 16 17 18 19 20 21 22 23 24 25 26 27 28 29 30 31 32 33 34 35 36 37 38 39 40 41 42 43 44 45 46 47 48 49 50

443
ASUS41 KOKX 230709
RWROKX

REGIONAL WEATHER ROUNDUP
NATIONAL WEATHER SERVICE NEW YORK NY
300 AM EDT SAT SEP 23 2017

NOTE: "FAIR" INDICATES FEW OR NO CLOUDS BELOW 12,000 FEET WITH NO
SIGNIFICANT WEATHER AND/OR OBSTRUCTIONS TO VISIBILITY.

NYZ071-072-176-178-NJZ106-104-230800-
NEW YORK CITY METRO AREA

CITY           SKY/WX    TMP DP  RH WIND       PRES   REMARKS
Central Park   CLOUDY    73  57  57 N9G18     30.01F
Bronx Bot Gard   N/A     70  52  52 W2        30.00F
LaGuardia APRT PTCLDY    72  56  57 N13       29.97F
Kennedy INTL   PTCLDY    71  57  61 N14       29.97F
Breezy Point     N/A     72 N/A N/A N12G18      N/A
Newark/Liberty PTCLDY    71  52  50 N12       29.98F
Teterboro      CLOUDY    70  54  56 NW6       29.98S
$$

NYZ177-179-078>081-230800-
LONG ISLAND NEW YORK

CITY           SKY/WX    TMP DP  RH WIND       PRES   REMARKS
Jones Beach      N/A     68 N/A N/A N10         N/A
Matinecock PT    N/A     70 N/A N/A N7          N/A
Farmingdale    CLEAR     69  57  65 N12       29.95F
MacArthur/ISP  MOCLDY    69  57  65 N13G20    29.94F
Shirley        CLOUDY    71  58  63 N14G23    29.94S
Mt Sinai Harb    N/A    N/A N/A N/A N16G22      N/A
Westhampton    CLOUDY    67  57  70 N15G24    29.94F
East Hampton   CLOUDY    65  60  82 N10G18    29.92S
Montauk          N/A     66  63  90 N13G23    29.92F
$$

NYZ052-065-067-230800-
HUDSON VALLEY

CITY           SKY/WX    TMP DP  RH WIND       PRES   REMARKS
White Plains   CLEAR     68  53  58 N13       29.98F
Larchmont Harb   N/A     70 N/A N/A NW6         N/A
Croton On Huds   N/A     68 N/A N/A NW1         N/A
Newburgh       MOCLDY    63  55  77 CALM      30.05R
Montgomery     CLEAR     57  53  86 CALM      30.03S
Poughkeepsie   CLOUDY    62  53  72 CALM      30.02S
Albany         CLEAR     59  50  72 N5        30.05F
$$

NJZ001-105-106-008-010-013-015-019>022-104-230800-
NEW JERSEY

CITY           SKY/WX    TMP DP  RH WIND       PRES   REMARKS
Newark/Liberty PTCLDY    71  52  50 N12       29.98F
Teterboro      CLOUDY    70  54  56 NW6       29.98S
Caldwell       PTCLDY    65  54  67 CALM      30.01S
Somerville     NOT AVBL
Linden         FAIR      70  51  50 N8        29.99S
Perth Amboy      N/A     70 N/A N/A NW6         N/A
Sussex         CLEAR     56  56 100 CALM      30.04S
Andover          N/A     58  56  93 CALM      30.04S
Trenton        PTCLDY    67  55  65 N7        30.00S
Millville      CLEAR     70  59  68 N5        29.99S
Atlantic City  PTCLDY    67  59  75 N8        29.98S
Wrightstown    PTCLDY    66  56  69 NW7       29.96S
Toms River     PTCLDY    66  55  67 NW7       29.98F
Belmar         CLEAR     69  58  67 NW9       29.98F
$$

PAZ047>061-062-071-230800-
EASTERN PENNSYLVANIA

CITY           SKY/WX    TMP DP  RH WIND       PRES   REMARKS
Philadelphia   PTCLDY    70  53  54 N7        30.00F
Allentown      CLEAR     60  53  77 SW3       30.03S
Scranton       CLEAR     57  51  80 E5        30.07F
$$

CTZ002-004>006-009-010-012-RIZ004-006-007-MAZ004-011-015-230800-
SOUTHERN NEW ENGLAND
 IN CT

CITY           SKY/WX    TMP DP  RH WIND       PRES   REMARKS
Bradley INTL   CLOUDY    69  51  52 N17       30.00S
Hartford       MOCLDY    69  53  56 NE10      29.99S
Danbury        CLOUDY    69  54  58 N9        30.02S
Wtrbury/Oxford MOCLDY    66  54  65 N12       30.01R
Norwalk Harbor   N/A     70 N/A N/A N12         N/A
Bridgeport     CLEAR     70  54  56 N9        29.96S
Meriden        CLOUDY    68  52  56 N12       29.98S
New Haven      CLEAR     69  53  56 N15G22    29.96S
Chester        PTSUNNY   66  55  68 N10G21    29.97R
Groton         PTCLDY    66  59  78 N15       29.92S
Wilimantic     CLOUDY    67  57  70 N13       29.98S

 IN RI

CITY           SKY/WX    TMP DP  RH WIND       PRES   REMARKS
Providence     CLOUDY    63  62  97 N18G26    29.96S
Block Island   CLOUDY    63  61  93 N20G29    29.90S
Westerly       CLOUDY    65  61  87 N16G22    29.93S
 IN MA

CITY           SKY/WX    TMP DP  RH WIND       PRES   REMARKS
Boston         DRIZZLE   61  59  93 N16       30.00R FOG
Worcester      CLOUDY    63  48  58 N15G25    30.02S
Westfield      CLOUDY    69  50  50 N9        30.01F
Provincetown   FOG       59  59 100 NE15      29.95R VSB 3/4
Nantucket      LGT RAIN  64  64 100 NE22G28   29.84S FOG
$$

ANZ330-335-338-340-345-350-353-355-230800-
COASTAL MARINE OBSERVATIONS


STATION/POSITION TIME  SKY/WX   TEMP    WIND        PRES    VSBY  WAVE
                                AIR SEA DIR/SP/G                  HT/PER
                 (UTC)          (F)     (DEG/KT/KT) (MB)    (MI)  (FT/S)
NY HARB ENTRANCE 0550            71 70  350/ 16/ 19 1013.9          4/ 8
20 S FIRE ISLAND 0550            68 67  360/ 16/ 19 1013.6          6/ 7
GREAT SOUTH BAY  0630            69 69   10/ 14/ 19   N/A
23 SSW MONTAUK P 0550            64 65              1012.3          7/ 6
15 E BARNEGAT LI 0630               69                N/A           6/12
HUDSON CANYON    0650            66 69  360/ 21/ 25 1011.2          8/ 8
KINGS POINT      0630            71 71   40/ 10/ 12 1015.8
EXECUTION ROCKS  0645            71     360/  8/ 10   N/A
WESTERN LI SOUND NOT AVBL
CENTRAL LI SOUND 0630            69      10/ 17/ 23   N/A           2
EASTERN LI SOUND NOT AVBL
ROBBINS REEF     0630            73     350/ 10/ 16 1015.5
$$


>>>>>>>>>>>>>>>>>>>>>>>>>>>> KEY <<<<<<<<<<<<<<<<<<<<<<<<<<<
>                                                          <
>     SKY/WX - Sky Condition/Present Weather               <
>     TMP    - Temperature in Fahrenheit                   <
>     DP     - Dew Point in Fahrenheit                     <
>     RH     - Relative Humidity in Percent                <
>     WIND   - Direction (from) and Speed in MPH           <
>     PRES   - Mean Sea Level Pressure (inches of Hg)      <
>     WCI    - Wind Chill Index                            <
>     VSB    - VISIBILITY IN MILES                         <
>     HX     - HEAT INDEX                                  <
>     TC     - TEMPERATURE IN CELSIUS                      <
>     VRB    - VARIABLE WIND DIRECTION                     <
>                                                          <
>>>>>>>>>>>>>>>>>>>>>>>>>>>> KEY <<<<<<<<<<<<<<<<<<<<<<<<<<<




USA.gov is the U.S. government's official web portal to all federal, state and local government web resources and services.